FW8091 Weather Reports


time (UTC)temp
F
wind
direction
speed
knots
gust
knots
rain 1hr
in
rain 24hr
in
rain mn
in
humidity
%
barometer
mb
20260507141512 62 18 5.2 9.6 0.00 0.54 0.54 61 1012.9
20260507140027 61 43 4.3 7.8 0.02 0.54 0.54 62 1012.9
20260507134512 60 354 4.3 11.3 0.38 0.54 0.54 63 1012.9
20260507133011 59 41 7.8 11.3 0.39 0.54 0.54 64 1013.4
20260507131507 59 32 1.7 5.2 0.43 0.54 0.54 65 1013.7
20260507130006 59 37 2.6 16.5 0.43 0.52 0.52 65 1013.9
20260507124503 59 247 4.3 7.8 0.13 0.16 0.16 65 1013.6
20260507123003 59 292 4.3 7.8 0.13 0.14 0.14 63 1013.9
20260507121532 59 210 5.2 9.6 0.11 0.11 0.11 63 1013.9
20260507120031 59 177 4.3 8.7 0.09 0.09 0.09 62 1013.8
20260507114553 63 140 4.3 9.6 0.03 0.03 0.03 62 1014.5
20260507113125 64 75 10.4 18.2 0.01 0.01 0.01 61 1014.4
20260507111550 64 37 12.2 18.2 0.00 0.00 0.00 61 1014.0
20260507110048 64 43 12.2 17.4 0.00 0.00 0.00 61 1014.2
20260507104558 64 32 11.3 19.1 0.00 0.00 0.00 62 1014.1
20260507103047 64 63 10.4 15.6 0.00 0.00 0.00 62 1014.3
20260507101544 64 41 10.4 15.6 0.00 0.00 0.00 63 1014.4
20260507100053 64 33 10.4 16.5 0.00 0.00 0.00 63 1014.3
20260507094540 64 60 10.4 17.4 0.00 0.00 0.00 62 1014.2
20260507093040 64 49 11.3 19.1 0.00 0.00 0.00 62 1014.1
20260507091541 64 54 10.4 18.2 0.00 0.00 0.00 61 1014.3
20260507090034 64 55 10.4 18.2 0.00 0.00 0.00 61 1014.5
20260507084546 64 47 12.2 17.4 0.00 0.00 0.00 62 1014.3
20260507083029 64 46 10.4 17.4 0.00 0.00 0.00 61 1014.2
20260507081524 64 41 12.2 17.4 0.00 0.00 0.00 61 1014.2
20260507080024 64 53 11.3 19.1 0.00 0.00 0.00 60 1014.2
20260507074523 64 60 11.3 18.2 0.00 0.00 0.00 60 1014.2
20260507073024 64 25 12.2 16.5 0.00 0.00 0.00 61 1014.2
20260507071519 64 52 12.2 17.4 0.00 0.00 0.00 61 1014.1
20260507070021 64 37 9.6 16.5 0.00 0.00 0.00 62 1013.8
20260507064516 64 32 10.4 17.4 0.00 0.00 0.00 62 1013.7
20260507063015 64 33 7.8 20.0 0.00 0.00 0.00 63 1013.4
20260507061513 64 33 11.3 17.4 0.00 0.00 0.00 63 1013.4
20260507060010 64 60 8.7 15.6 0.00 0.00 0.00 63 1013.3
20260507054507 64 56 10.4 13.9 0.00 0.00 0.00 62 1013.2
20260507053005 64 38 7.8 15.6 0.00 0.00 0.00 62 1013.3
20260507051501 64 31 8.7 16.5 0.00 0.00 0.00 62 1013.1
20260507050003 64 48 8.7 14.8 0.00 0.00 0.00 62 1013.0
20260507044600 64 14 7.0 13.0 0.00 0.00 0.00 63 1012.8
20260507043058 64 28 8.7 13.0 0.00 0.00 0.00 63 1012.9
20260507041555 64 43 6.1 13.9 0.00 0.00 0.00 63 1013.0
20260507040056 64 53 8.7 14.8 0.00 0.00 0.00 63 1013.1
20260507034550 64 42 9.6 13.9 0.00 0.00 0.00 63 1013.0
20260507033050 64 34 8.7 14.8 0.00 0.00 0.00 62 1012.8
20260507031543 64 70 7.8 12.2 0.00 0.00 0.00 62 1012.9
20260507030042 63 33 6.1 9.6 0.00 0.00 0.00 62 1013.0
20260507024545 63 22 5.2 7.8 0.00 0.00 0.00 62 1013.1
20260507023038 64 21 7.0 11.3 0.00 0.00 0.00 62 1013.3
20260507021515 64 48 7.0 12.2 0.00 0.00 0.00 62 1013.2
20260507020004 64 36 7.0 13.0 0.00 0.00 0.00 61 1013.4
20260507014601 64 41 7.8 11.3 0.00 0.00 0.00 61 1013.5
20260507013034 64 52 5.2 12.2 0.00 0.00 0.00 61 1013.8
20260507011537 64 50 6.1 11.3 0.00 0.00 0.00 62 1013.7
20260507010056 64 57 5.2 11.3 0.00 0.00 0.00 62 1013.7
20260507004554 64 25 6.1 12.2 0.00 0.00 0.00 62 1013.7
20260507003050 64 44 6.1 9.6 0.00 0.00 0.00 61 1013.8
20260507001547 64 43 5.2 10.4 0.00 0.00 0.00 61 1013.7
20260507000046 64 33 7.0 10.4 0.00 0.00 0.00 60 1013.6
20260506234552 65 58 2.6 9.6 0.00 0.00 0.00 60 1014.0
20260506233041 64 40 3.5 8.7 0.00 0.00 0.00 60 1014.1
20260506231540 64 40 3.5 8.7 0.00 0.00 0.00 60 1014.2
20260506230039 64 32 3.5 7.8 0.00 0.00 0.00 60 1014.3
20260506224544 65 47 2.6 7.0 0.00 0.00 0.00 60 1014.4
20260506223037 65 50 4.3 8.7 0.00 0.00 0.00 60 1014.2
20260506221536 65 64 6.1 9.6 0.00 0.00 0.00 60 1014.0
20260506220037 65 62 5.2 10.4 0.00 0.00 0.00 60 1014.3
20260506214535 65 47 3.5 9.6 0.00 0.00 0.00 60 1014.5
20260506213033 65 67 5.2 9.6 0.00 0.00 0.00 60 1014.9
20260506211531 65 73 4.3 9.6 0.00 0.00 0.00 60 1014.8
20260506210035 65 73 6.1 9.6 0.00 0.00 0.00 60 1014.8
20260506204545 65 96 7.0 9.6 0.00 0.00 0.00 60 1014.8
20260506203030 65 120 6.1 9.6 0.00 0.00 0.00 61 1014.5
20260506201530 65 82 3.5 9.6 0.00 0.00 0.00 61 1014.3
20260506200024 65 94 5.2 10.4 0.00 0.00 0.00 61 1014.0
20260506194524 65 97 7.0 9.6 0.00 0.00 0.00 61 1013.9
20260506193020 65 88 5.2 11.3 0.00 0.00 0.00 61 1013.6
20260506191520 65 68 7.8 11.3 0.00 0.00 0.00 61 1013.5
20260506190019 65 93 7.0 10.4 0.00 0.00 0.00 60 1013.5
20260506184519 65 91 7.8 11.3 0.00 0.00 0.00 60 1013.3
20260506183016 65 86 6.1 9.6 0.00 0.00 0.00 60 1013.1
20260506181524 65 102 7.8 12.2 0.00 0.00 0.00 60 1013.0
20260506180016 65 65 6.1 12.2 0.00 0.00 0.00 60 1013.0
20260506174515 65 88 9.6 12.2 0.00 0.00 0.00 60 1013.1
20260506173014 66 95 9.6 11.3 0.00 0.00 0.00 61 1013.0
20260506171522 66 118 8.7 13.9 0.00 0.00 0.00 60 1012.9
20260506170012 66 99 7.8 13.0 0.00 0.00 0.00 60 1012.9
20260506164512 66 85 11.3 16.5 0.00 0.00 0.00 59 1013.0
20260506163010 66 85 11.3 17.4 0.00 0.00 0.00 59 1013.0
20260506161509 66 89 9.6 19.1 0.00 0.00 0.00 60 1013.1
20260506160008 66 83 9.6 18.2 0.00 0.00 0.00 60 1013.0
20260506154508 66 96 11.3 20.0 0.00 0.00 0.00 60 1013.0
20260506153037 66 81 13.9 18.2 0.00 0.00 0.00 59 1012.9
20260506151555 66 97 11.3 16.5 0.00 0.00 0.00 58 1013.1
20260506150035 66 54 11.3 16.5 0.00 0.00 0.00 57 1013.2
20260506144535 66 68 10.4 17.4 0.00 0.00 0.00 56 1013.2
20260506143044 67 56 10.4 14.8 0.00 0.00 0.00 55 1013.2